ARIANE 2 DEB, 33579

Orbit data source: Space-Track

ARIANE 2 DEB, 33579 is space debris in HEO originally from a launch on Fri, 27 Jan 1989 UTC launched from the French Guiana (FRGUI). Debris objects in space refer to the collection of defunct objects orbiting the Earth. Examples of debris include non-operational satellites, rocket bodies, and fragments generated from explosions, collisions, or faulty payload assembly.

Loading next visibility...
Identifier
33579, 1989-006BX
Orbit
HEO
Country
Flag of FRFR
Related business
Manufacturer
EADS/LV
Mission
Spacecraft
Bus & Motor
Unknown
Mass
Unknown
Launch date (UTC)
1989-01-27 (37 years ago)
Launch vehicle
Unknown
Launch site
French Guiana (FRGUI)
Object type
Payload
Rocket body
Debris
Shape & HBR
Unknown shape, 0.2 m
Radar Cross Section
Medium (>0.1 m² and <1 m²)

Expand to show TLE details & history
Last TLE update: 1 day ago

TLE from 1 day ago
0 ARIANE 2 DEB
1 33579U 89006BX  25348.80361667  .00000386  00000-0  29111-1 0  9991
2 33579  10.5788 152.6891 7036595 235.8762  44.9118  2.24727037190964
Epoch: 2025-12-14T19:17Z
TLE epoch observation values (Epoch: 2025-12-14T19:17:12.480Z)
Latitude
1.29442°
Longitude
146.47077°
Altitude
16,698.807 km
Speed
4.284 km/s
True Right ascension
10h 37m 56s
True Declination
1° 17' 31"
Sunlit
Object was in daylight at epoch
Visualization orbit readout
Latitude
Unknown
Longitude
Unknown
Altitude
Unknown
Speed
Unknown
Apparent Right ascension
Unknown
Apparent Declination
Unknown
Sunlit
N/A
Visualization observer readout
Local Sidereal Time
03:12:44
Azimuth
Unknown
Elevation
Unknown
Doppler factor
Unknown
Orbital elements
Apogee altitude
35,575.042 km
Perigee altitude
919.346 km
Semi-major axis
24,625.331 km
Eccentricity
0.70366
Inclination
10.5788°
RAAN
152.6891°
Arg. of periapsis
235.8762°
True anomaly
131.11548°
Mean anomaly
44.9118°
Eccentric anomaly
85.07997°
Mean motion
0.56166 °/min
Orbital period
640.96 mins
BSTAR
0.029111
Loading maneuver chart data...
Computing Atmospheric mass density...
Loading historical data...
Loading historical data...
Loading historical data...
Loading historical data...
Loading historical data...
Loading historical data...
Loading historical data...

Documentation

Showing up to 5 results
|